Location: Asni�res
(49.1337°N, 2.3555°E)
Time: 03:16:09
(UTC+00:00)

Cosmos 405 Rocket - Pass Details

Date: 16 October 2021
Orbit: 489 x 551 km, 81.3° (Epoch: 27 November)

Event Time Altitude Azimuth Distance (km) Brightness Sun altitude
Rises 18:30:16 0° 348° (NNW) 2,665 6.5 -15.8°
Reaches altitude 10° 18:32:24 10° 349° (N) 1,782 5.6 -16.1°
Maximum altitude 18:36:20 86° 76° (ENE) 543 2.7 -16.8°
Drops below altitude 10° 18:40:18 10° 168° (SSE) 1,801 5.3 -17.4°
Enters shadow 18:42:04 - 169° (S) 2,532 6.0 -17.7°
